World > North America > United States > New York > North Sanford  

North Sanford, NY Hourly Weather Updates

Feedback E-mail the Weather

Quick WX

North Sanford, NY Weather Maps

°F °C°F °C
North Sanford Weather Map
UTC Time: 2/29/2024, 19:37
Your Time:

North Sanford, NY Regional Weather

Expires:202402292000;;163476
ASUS41 KPHI 291910
RWRPHI

REGIONAL WEATHER ROUNDUP
NATIONAL WEATHER SERVICE MOUNT HOLLY NJ
200 PM EST THU FEB 29 2024

NOTE:  "FAIR" INDICATES FEW OR NO CLOUDS BELOW 12,000 FEET WITH NO
SIGNIFICANT WEATHER AND/OR OBSTRUCTIONS TO VISIBILITY.

 * = STATION DOES NOT REPORT PRECIPITATION (E.G. RAIN, SNOW, ETC.) 
        OR FOG.


PAZ001-021-NYZ056-072-MDZ011-DCZ001-292000-
OTHER NEARBY LOCATIONS
  
CITY           SKY/WX    TMP DP  RH WIND       PRES   REMARKS
HARRISBURG     MOSUNNY   41  16  36 W20G26    30.33S                  
STATE COLLEGE  MOSUNNY   32  14  47 W20G26    30.31F WCI  20          
WILLIAMSPORT   SUNNY     37  11  34 W15G24    30.29F WCI  28          
BINGHAMTON     MOSUNNY   26   7  44 W15G29    30.19F WCI  14          
NEW YORK CITY  MOSUNNY   41  10  28 NW12G25   30.27S                  
BALTIMORE      MOSUNNY   46  14  27 W13G20    30.35F                  
WASHINGTON DC  MOSUNNY   48  11  22 W15       30.37F                  

$$
  

SKY/WX - Weather  TMP - Temperature  DP - Dew Point  RH - Humidity
WIND - Wind Direction/Speed PRES - Barometric Pressure VSB - Visibility
WCI - Wind Chill Index E13G22 Wind - East Wind 13 mph/Gusts of 22 mph

Trending Headlines

Trending Entertainment Headlines

North Sanford Radar Loop

Use the map search tool if you want to place a location marker on the radar map...

North Sanford Quick Facts

National Two Day Weather Forecast


E-mail the North Sanford Weather Forecast

Voice your opinion or tell us about page issues...